C/2017 E1 ( Borisov )

Japanese version
Home page
Updated on July 6, 2017

---------------------------------------------------------------------

* Profile

Discovery Date March 1, 2017
Magnitude 17.0 mag
Discoverer Gennadii Vladimirovich Borisov (Nauchnij, Crimea)

* Pictures

* Orbital Elements

Epoch 2017 Mar. 28.0 TT = JDT 2457840.5
T 2017 Apr. 10.13850 TT                                 MPCW
q   0.9006629            (2000.0)            P               Q
z  -0.0028648      Peri.  152.47301     +0.43485819     +0.88754943
 +/-0.0000353      Node   142.73323     -0.86548917     +0.45860072
e   1.0025803      Incl.   14.55413     -0.24865006     -0.04406119
From 156 observations 2017 Mar. 1-May 26, mean residual 0".6.

* Finding Charts

* Magnitudes Graph

        m1 = 10.5 + 5 log d + 15.0 log r

---------------------------------------------------------------------

The orbital elements are published on M.P.E.C. 2017-L52.
The charts are made with StellaNavigator Ver.10 (AstroArts).
The magnitudes graphs are made with Comet for Windows.

---------------------------------------------------------------------

Copyright(C) Seiichi Yoshida (comet@aerith.net). All rights reserved.